Location: Newark
(36.1358°N, 115.1208°W)
Time: 11:32:05
(UTC+00:00)

Vanguard 1 Rocket - Pass Details

Date: 19 February 2020
Orbit: 650 x 4226 km, 34.3° (Epoch: 03 April)

Event Time Altitude Azimuth Distance (km) Brightness Sun altitude
Rises 16:06:35 0° 272° (W) 2,980 9.5 18.4°
Reaches altitude 10° 16:08:55 10° 259° (W) 2,160 9.0 18.9°
Maximum altitude 16:12:58 27° 200° (SSW) 1,558 8.9 19.6°
Drops below altitude 10° 16:18:35 10° 144° (SE) 3,066 11.6 20.5°
Sets 16:22:40 0° 134° (SE) 4,556 12.4 21.2°
